,,,PA_Meas_PMT16A,,PR_Meas_QMR101_102,,RH_Meas_QMH101,,SR_Meas_QMS101,,TA_Meas_QMH101,,GenWind,,GenWind,
date,time,status,PA,status,PR,status,RH,status,SR,status,TA,status,DirAvg,status,SpdAvg,
2011-09-22, 00:00:04,VALID,1001.77,VALID,0,VALID,93.1043,VALID,0,VALID,23.3305,VALID,171,VALID,0.914063,
2011-09-22, 00:01:04,VALID,1001.76,VALID,0,VALID,93.0051,VALID,0,VALID,23.2897,VALID,171,VALID,0.78125,
2011-09-22, 00:02:04,VALID,1001.75,VALID,0,VALID,92.8677,VALID,0,VALID,23.2719,VALID,171,VALID,0.616797,
2011-09-22, 00:03:04,VALID,1001.73,VALID,0,VALID,92.8143,VALID,0,VALID,23.2524,VALID,171,VALID,0.444531,
2011-09-22, 00:04:04,VALID,1001.7,VALID,0,VALID,92.8143,VALID,0,VALID,23.2134,VALID,171,VALID,0.277344,
2011-09-22, 00:05:04,VALID,1001.68,VALID,0,VALID,92.7991,VALID,0,VALID,23.1744,VALID,171,VALID,0.307422,
2011-09-22, 00:06:04,VALID,1001.64,VALID,0,VALID,92.8525,VALID,0,VALID,23.1744,VALID,171,VALID,0.300781,
2011-09-22, 00:07:04,VALID,1001.63,VALID,0,VALID,92.8906,VALID,0,VALID,23.1354,VALID,171,VALID,0.339844,
2011-09-22, 00:08:04,VALID,1001.61,VALID,0,VALID,92.9211,VALID,0.112286,VALID,23.1141,VALID,171,VALID,0.634375,
2011-09-22, 00:09:04,VALID,1001.64,VALID,0,VALID,93.0203,VALID,0,VALID,23.1354,VALID,171,VALID,0.775391,
2011-09-22, 00:10:04,VALID,1001.63,VALID,0,VALID,93.089,VALID,0,VALID,23.0964,VALID,171,VALID,0.764844,
2011-09-22, 00:11:04,VALID,1001.59,VALID,0,VALID,93.1119,VALID,0,VALID,23.0981,VALID,171,VALID,0.6875,
2011-09-22, 00:12:04,VALID,1001.61,VALID,0,VALID,93.1043,VALID,0,VALID,23.0591,VALID,171,VALID,0.766797,
2011-09-22, 00:13:04,VALID,1001.61,VALID,0,VALID,93.1195,VALID,0,VALID,23.0201,VALID,171,VALID,0.724609,
2011-09-22, 00:14:04,VALID,1001.62,VALID,0,VALID,93.1271,VALID,0,VALID,22.9811,VALID,171,VALID,0.752734,
2011-09-22, 00:15:04,VALID,1001.6,VALID,0,VALID,93.1271,VALID,0,VALID,22.9403,VALID,171,VALID,0.593359,
2011-09-22, 00:16:04,VALID,1001.61,VALID,0,VALID,93.1424,VALID,0,VALID,22.942,VALID,171,VALID,0.359766,
2011-09-22, 00:17:04,VALID,1001.6,VALID,0,VALID,93.15,VALID,0,VALID,22.8818,VALID,171,VALID,0.478906,
2011-09-22, 00:18:04,VALID,1001.59,VALID,0,VALID,93.1348,VALID,0,VALID,22.8835,VALID,171,VALID,0.816797,
2011-09-22, 00:19:04,VALID,1001.56,VALID,0,VALID,93.2187,VALID,0,VALID,22.9225,VALID,171,VALID,0.775391,
2011-09-22, 00:20:04,VALID,1001.53,VALID,0,VALID,93.2568,VALID,0,VALID,22.9615,VALID,94,VALID,0.951563,
2011-09-22, 00:21:04,VALID,1001.51,VALID,0,VALID,93.2721,VALID,0,VALID,22.9615,VALID,94,VALID,0.991016,
2011-09-22, 00:22:04,VALID,1001.49,VALID,0,VALID,93.2874,VALID,0,VALID,22.9811,VALID,94,VALID,0.961328,
2011-09-22, 00:23:04,VALID,1001.46,VALID,0,VALID,93.295,VALID,0,VALID,22.9615,VALID,94,VALID,0.830469,
2011-09-22, 00:24:04,VALID,1001.48,VALID,0,VALID,93.2721,VALID,0,VALID,22.942,VALID,94,VALID,0.759766,
2011-09-22, 00:25:04,VALID,1001.46,VALID,0,VALID,93.2797,VALID,0.112286,VALID,22.919,VALID,94,VALID,0.723047,
2011-09-22, 00:26:04,VALID,1001.43,VALID,0,VALID,93.2874,VALID,0,VALID,22.9598,VALID,94,VALID,0.704297,
2011-09-22, 00:27:04,VALID,1001.42,VALID,0,VALID,93.2874,VALID,0,VALID,22.9403,VALID,94,VALID,0.700391,
2011-09-22, 00:28:04,VALID,1001.44,VALID,0,VALID,93.2645,VALID,0,VALID,22.9403,VALID,94,VALID,0.582031,
2011-09-22, 00:29:04,VALID,1001.44,VALID,0,VALID,93.2874,VALID,0,VALID,22.8995,VALID,94,VALID,0.5875,
2011-09-22, 00:30:04,VALID,1001.39,VALID,0,VALID,93.2797,VALID,0,VALID,22.9013,VALID,94,VALID,0.683594,
2011-09-22, 00:31:04,VALID,1001.36,VALID,0,VALID,93.3103,VALID,0,VALID,22.9208,VALID,94,VALID,0.617969,
2011-09-22, 00:32:04,VALID,1001.37,VALID,0,VALID,93.3026,VALID,0,VALID,22.919,VALID,94,VALID,0.594141,
2011-09-22, 00:33:04,VALID,1001.38,VALID,0,VALID,93.3408,VALID,0,VALID,22.9598,VALID,94,VALID,0.382813,
2011-09-22, 00:34:04,VALID,1001.37,VALID,0,VALID,93.356,VALID,0,VALID,22.9598,VALID,94,VALID,0.309766,
2011-09-22, 00:35:04,VALID,1001.35,VALID,0,VALID,93.3866,VALID,0,VALID,22.9581,VALID,94,VALID,0.178906,
2011-09-22, 00:36:04,VALID,1001.35,VALID,0,VALID,93.3789,VALID,0,VALID,22.9598,VALID,94,VALID,0,
2011-09-22, 00:37:04,VALID,1001.32,VALID,0,VALID,93.4247,VALID,0,VALID,22.9403,VALID,94,VALID,0,
2011-09-22, 00:38:04,VALID,1001.3,VALID,0,VALID,93.4094,VALID,0,VALID,22.9208,VALID,94,VALID,0,
2011-09-22, 00:39:04,VALID,1001.3,VALID,0,VALID,93.4323,VALID,0,VALID,22.9403,VALID,94,VALID,0,
2011-09-22, 00:40:04,VALID,1001.27,VALID,0,VALID,93.44,VALID,0,VALID,22.9385,VALID,94,VALID,0,
2011-09-22, 00:41:04,VALID,1001.28,VALID,0,VALID,93.4705,VALID,0,VALID,22.9385,VALID,94,VALID,0,
2011-09-22, 00:42:04,VALID,1001.26,VALID,0,VALID,93.4781,VALID,0,VALID,22.9598,VALID,94,VALID,0,
2011-09-22, 00:43:04,VALID,1001.26,VALID,0,VALID,93.4857,VALID,0,VALID,22.9793,VALID,94,VALID,0,
2011-09-22, 00:44:04,VALID,1001.21,VALID,0,VALID,93.4934,VALID,0,VALID,22.9598,VALID,94,VALID,0,
2011-09-22, 00:45:04,VALID,1001.22,VALID,0,VALID,93.501,VALID,0,VALID,22.9598,VALID,94,VALID,0,
2011-09-22, 00:46:04,VALID,1001.21,VALID,0,VALID,93.5163,VALID,0,VALID,22.9598,VALID,94,VALID,0,
2011-09-22, 00:47:04,VALID,1001.2,VALID,0,VALID,93.5315,VALID,0,VALID,22.9793,VALID,94,VALID,0,
2011-09-22, 00:48:04,VALID,1001.18,VALID,0,VALID,93.5391,VALID,0,VALID,22.9793,VALID,94,VALID,0,
2011-09-22, 00:49:04,VALID,1001.16,VALID,0,VALID,93.5239,VALID,0,VALID,22.9598,VALID,94,VALID,0.28125,
2011-09-22, 00:50:04,VALID,1001.15,VALID,0,VALID,93.5391,VALID,0,VALID,22.9598,VALID,94,VALID,0.0253906,
2011-09-22, 00:51:04,VALID,1001.15,VALID,0,VALID,93.5086,VALID,0,VALID,22.9208,VALID,94,VALID,0,
2011-09-22, 00:52:04,VALID,1001.16,VALID,0,VALID,93.4781,VALID,0,VALID,22.8818,VALID,94,VALID,0,
2011-09-22, 00:53:04,VALID,1001.14,VALID,0,VALID,93.4628,VALID,0,VALID,22.8623,VALID,94,VALID,0.179297,
2011-09-22, 00:54:04,VALID,1001.13,VALID,0,VALID,93.4552,VALID,0,VALID,22.8623,VALID,94,VALID,0,
2011-09-22, 00:55:04,VALID,1001.13,VALID,0,VALID,93.4323,VALID,0,VALID,22.8427,VALID,94,VALID,0,
2011-09-22, 00:56:04,VALID,1001.15,VALID,0,VALID,93.4628,VALID,0,VALID,22.8623,VALID,94,VALID,0,
2011-09-22, 00:57:04,VALID,1001.12,VALID,0,VALID,93.4552,VALID,0,VALID,22.8427,VALID,94,VALID,0,
2011-09-22, 00:58:04,VALID,1001.08,VALID,0,VALID,93.4552,VALID,0,VALID,22.7842,VALID,94,VALID,0,
2011-09-22, 00:59:04,VALID,1001.1,VALID,0,VALID,93.4857,VALID,0,VALID,22.8037,VALID,94,VALID,0.670313,
2011-09-22, 01:00:04,VALID,1001.06,VALID,0,VALID,93.4934,VALID,0,VALID,22.864,VALID,94,VALID,0,
2011-09-22, 01:01:04,VALID,1001.05,VALID,0,VALID,93.501,VALID,0,VALID,22.8818,VALID,94,VALID,0,
2011-09-22, 01:02:04,VALID,1001.05,VALID,0,VALID,93.501,VALID,0.112286,VALID,22.9013,VALID,94,VALID,0,
2011-09-22, 01:03:04,VALID,1001.03,VALID,0,VALID,93.5315,VALID,0,VALID,22.9403,VALID,94,VALID,0,
2011-09-22, 01:04:04,VALID,1001.03,VALID,0,VALID,93.501,VALID,0,VALID,22.9403,VALID,94,VALID,0,
2011-09-22, 01:05:04,VALID,1000.99,VALID,0,VALID,93.4628,VALID,0,VALID,22.9598,VALID,94,VALID,0,
2011-09-22, 01:06:04,VALID,1000.99,VALID,0,VALID,93.4476,VALID,0,VALID,22.9598,VALID,94,VALID,0,
2011-09-22, 01:07:04,VALID,1000.99,VALID,0,VALID,93.4018,VALID,0,VALID,22.9403,VALID,94,VALID,0,
2011-09-22, 01:08:04,VALID,1000.94,VALID,0,VALID,93.3408,VALID,0.112286,VALID,22.9598,VALID,94,VALID,0,
2011-09-22, 01:09:04,VALID,1000.93,VALID,0,VALID,93.3026,VALID,0,VALID,22.9598,VALID,94,VALID,0.463672,
2011-09-22, 01:10:04,VALID,1000.92,VALID,0,VALID,93.2111,VALID,0.112286,VALID,22.9776,VALID,94,VALID,0.601563,
2011-09-22, 01:11:04,VALID,1000.93,VALID,0,VALID,93.1119,VALID,0,VALID,23.0378,VALID,94,VALID,0.486719,
2011-09-22, 01:12:04,VALID,1000.95,VALID,0,VALID,92.9974,VALID,0,VALID,23.0378,VALID,94,VALID,0.434766,
2011-09-22, 01:13:04,VALID,1000.89,VALID,0,VALID,92.7914,VALID,0,VALID,22.9793,VALID,94,VALID,0.492188,
2011-09-22, 01:14:04,VALID,1000.89,VALID,0,VALID,92.5931,VALID,0,VALID,22.9598,VALID,94,VALID,0.0890625,
2011-09-22, 01:15:04,VALID,1000.87,VALID,0,VALID,92.4786,VALID,0,VALID,22.9598,VALID,94,VALID,0.523047,
2011-09-22, 01:16:04,VALID,1000.84,VALID,0,VALID,92.3718,VALID,0,VALID,22.9598,VALID,94,VALID,0.446094,
2011-09-22, 01:17:04,VALID,1000.83,VALID,0,VALID,92.2879,VALID,0,VALID,22.9403,VALID,94,VALID,0.417188,
2011-09-22, 01:18:04,VALID,1000.85,VALID,0,VALID,92.204,VALID,0,VALID,22.9013,VALID,94,VALID,0.708984,
2011-09-22, 01:19:04,VALID,1000.82,VALID,0,VALID,92.1353,VALID,0,VALID,22.9013,VALID,94,VALID,0.509766,
2011-09-22, 01:20:04,VALID,1000.84,VALID,0,VALID,92.0819,VALID,0,VALID,22.9013,VALID,94,VALID,0.449219,
2011-09-22, 01:21:04,VALID,1000.82,VALID,0,VALID,92.0514,VALID,0.112286,VALID,22.88,VALID,94,VALID,0.236328,
2011-09-22, 01:22:04,VALID,1000.82,VALID,0,VALID,92.0437,VALID,0,VALID,22.8818,VALID,94,VALID,0,
2011-09-22, 01:23:04,VALID,1000.79,VALID,0,VALID,92.059,VALID,0,VALID,22.8818,VALID,94,VALID,0,
2011-09-22, 01:24:04,VALID,1000.8,VALID,0,VALID,92.1277,VALID,0,VALID,22.8623,VALID,94,VALID,0,
2011-09-22, 01:25:04,VALID,1000.78,VALID,0,VALID,92.2192,VALID,0,VALID,22.8818,VALID,94,VALID,0,
2011-09-22, 01:26:04,VALID,1000.76,VALID,0,VALID,92.2803,VALID,0,VALID,22.8623,VALID,94,VALID,0,
2011-09-22, 01:27:04,VALID,1000.75,VALID,0,VALID,92.3184,VALID,0,VALID,22.8623,VALID,94,VALID,0,
2011-09-22, 01:28:04,VALID,1000.76,VALID,0,VALID,92.326,VALID,0,VALID,22.8623,VALID,94,VALID,0,
2011-09-22, 01:29:04,VALID,1000.74,VALID,0,VALID,92.3337,VALID,0,VALID,22.8427,VALID,94,VALID,0,
2011-09-22, 01:30:04,VALID,1000.75,VALID,0,VALID,92.326,VALID,0,VALID,22.8232,VALID,94,VALID,0,
2011-09-22, 01:31:04,VALID,1000.73,VALID,0,VALID,92.3489,VALID,0,VALID,22.8232,VALID,94,VALID,0,
2011-09-22, 01:32:04,VALID,1000.75,VALID,0,VALID,92.4176,VALID,0,VALID,22.8232,VALID,94,VALID,0.0257812,
2011-09-22, 01:33:04,VALID,1000.73,VALID,0,VALID,92.471,VALID,0,VALID,22.8037,VALID,94,VALID,0.723828,
2011-09-22, 01:34:04,VALID,1000.75,VALID,0,VALID,92.5015,VALID,0,VALID,22.8037,VALID,94,VALID,0.795313,
2011-09-22, 01:35:04,VALID,1000.78,VALID,0,VALID,92.5244,VALID,0,VALID,22.7842,VALID,94,VALID,0.786719,
2011-09-22, 01:36:04,VALID,1000.77,VALID,0,VALID,92.5091,VALID,0,VALID,22.7647,VALID,94,VALID,0.751562,
2011-09-22, 01:37:04,VALID,1000.79,VALID,0,VALID,92.4557,VALID,0,VALID,22.7257,VALID,94,VALID,0.788281,
2011-09-22, 01:38:04,VALID,1000.82,VALID,0,VALID,92.4176,VALID,0,VALID,22.646,VALID,94,VALID,0.851953,
2011-09-22, 01:39:04,VALID,1000.79,VALID,0,VALID,92.4634,VALID,0,VALID,22.6282,VALID,94,VALID,0.842188,
2011-09-22, 01:40:04,VALID,1000.81,VALID,0,VALID,92.5091,VALID,0,VALID,22.5874,VALID,71,VALID,0.997266,
2011-09-22, 01:41:04,VALID,1000.79,VALID,0,VALID,92.6007,VALID,0,VALID,22.5892,VALID,53,VALID,0.992969,
2011-09-22, 01:42:04,VALID,1000.77,VALID,0,VALID,92.7075,VALID,0,VALID,22.5892,VALID,53,VALID,0.921094,
2011-09-22, 01:43:04,VALID,1000.79,VALID,0,VALID,92.8067,VALID,0,VALID,22.5696,VALID,53,VALID,0.932031,
2011-09-22, 01:44:04,VALID,1000.79,VALID,0,VALID,92.883,VALID,0,VALID,22.5892,VALID,53,VALID,0.797656,
2011-09-22, 01:45:04,VALID,1000.78,VALID,0,VALID,92.9288,VALID,0,VALID,22.5696,VALID,53,VALID,0.726172,
2011-09-22, 01:46:04,VALID,1000.82,VALID,0,VALID,92.9517,VALID,0,VALID,22.5696,VALID,53,VALID,0.770703,
2011-09-22, 01:47:04,VALID,1000.84,VALID,0,VALID,93.0127,VALID,0,VALID,22.5892,VALID,53,VALID,0.848437,
2011-09-22, 01:48:04,VALID,1000.87,VALID,0,VALID,93.0203,VALID,0,VALID,22.6087,VALID,53,VALID,0.675781,
2011-09-22, 01:49:04,VALID,1000.86,VALID,0,VALID,93.0737,VALID,0,VALID,22.6087,VALID,53,VALID,0.718359,
2011-09-22, 01:50:04,VALID,1000.84,VALID,0,VALID,93.089,VALID,0,VALID,22.6087,VALID,53,VALID,0.776172,
2011-09-22, 01:51:04,VALID,1000.83,VALID,0,VALID,93.1119,VALID,0,VALID,22.6282,VALID,53,VALID,0.827734,
2011-09-22, 01:52:04,VALID,1000.78,VALID,0,VALID,93.1348,VALID,0,VALID,22.6672,VALID,53,VALID,0.730469,
2011-09-22, 01:53:04,VALID,1000.79,VALID,0,VALID,93.1577,VALID,0,VALID,22.6867,VALID,53,VALID,0.689844,
2011-09-22, 01:54:04,VALID,1000.77,VALID,0,VALID,93.1195,VALID,0,VALID,22.7062,VALID,53,VALID,0.560156,
2011-09-22, 01:55:04,VALID,1000.77,VALID,0,VALID,93.1271,VALID,0,VALID,22.7257,VALID,53,VALID,0.620703,
2011-09-22, 01:56:04,VALID,1000.76,VALID,0,VALID,93.1119,VALID,0,VALID,22.7257,VALID,53,VALID,0.714453,
2011-09-22, 01:57:04,VALID,1000.75,VALID,0,VALID,93.0737,VALID,0,VALID,22.724,VALID,53,VALID,0.772656,
2011-09-22, 01:58:04,VALID,1000.74,VALID,0,VALID,93.028,VALID,0,VALID,22.7452,VALID,53,VALID,0.812891,
2011-09-22, 01:59:04,VALID,1000.73,VALID,0,VALID,92.9822,VALID,0,VALID,22.7257,VALID,53,VALID,0.821484,
2011-09-22, 02:00:04,VALID,1000.73,VALID,0,VALID,92.9364,VALID,0,VALID,22.7257,VALID,53,VALID,0.705078,
2011-09-22, 02:01:04,VALID,1000.75,VALID,0,VALID,92.8983,VALID,0,VALID,22.7062,VALID,53,VALID,0.675391,
2011-09-22, 02:02:04,VALID,1000.75,VALID,0,VALID,92.8906,VALID,0,VALID,22.7257,VALID,53,VALID,0.644531,
2011-09-22, 02:03:04,VALID,1000.76,VALID,0,VALID,92.8677,VALID,0,VALID,22.7062,VALID,53,VALID,0.689844,
2011-09-22, 02:04:04,VALID,1000.76,VALID,0,VALID,92.8677,VALID,0,VALID,22.6867,VALID,53,VALID,0.817187,
2011-09-22, 02:05:04,VALID,1000.79,VALID,0,VALID,92.8601,VALID,0,VALID,22.6867,VALID,53,VALID,0.864844,
2011-09-22, 02:06:04,VALID,1000.8,VALID,0,VALID,92.8296,VALID,0,VALID,22.6867,VALID,53,VALID,0.976172,
2011-09-22, 02:07:04,VALID,1000.78,VALID,0,VALID,92.8143,VALID,0,VALID,22.6867,VALID,53,VALID,1.02539,
2011-09-22, 02:08:04,VALID,1000.79,VALID,0,VALID,92.8296,VALID,0,VALID,22.6655,VALID,53,VALID,0.946484,
2011-09-22, 02:09:04,VALID,1000.77,VALID,0,VALID,92.8372,VALID,0,VALID,22.7062,VALID,53,VALID,0.687891,
2011-09-22, 02:10:04,VALID,1000.76,VALID,0,VALID,92.7991,VALID,0,VALID,22.7062,VALID,53,VALID,0.665234,
2011-09-22, 02:11:04,VALID,1000.76,VALID,0,VALID,92.7762,VALID,0,VALID,22.6884,VALID,53,VALID,0.740625,
2011-09-22, 02:12:04,VALID,1000.72,VALID,0,VALID,92.7609,VALID,0,VALID,22.7079,VALID,53,VALID,0.645703,
2011-09-22, 02:13:04,VALID,1000.74,VALID,0,VALID,92.7762,VALID,0,VALID,22.7079,VALID,53,VALID,0.571484,
2011-09-22, 02:14:04,VALID,1000.78,VALID,0,VALID,92.7838,VALID,0,VALID,22.6672,VALID,53,VALID,0.510938,
2011-09-22, 02:15:04,VALID,1000.74,VALID,0,VALID,92.8067,VALID,0,VALID,22.7079,VALID,53,VALID,0.511328,
2011-09-22, 02:16:04,VALID,1000.76,VALID,0,VALID,92.7991,VALID,0,VALID,22.7079,VALID,53,VALID,0.55,
2011-09-22, 02:17:04,VALID,1000.74,VALID,0,VALID,92.7609,VALID,0,VALID,22.7079,VALID,53,VALID,0.414844,
2011-09-22, 02:18:04,VALID,1000.71,VALID,0,VALID,92.7685,VALID,0,VALID,22.7079,VALID,53,VALID,0.408594,
2011-09-22, 02:19:04,VALID,1000.7,VALID,0,VALID,92.7533,VALID,0,VALID,22.6672,VALID,53,VALID,0.420312,
2011-09-22, 02:20:04,VALID,1000.69,VALID,0,VALID,92.738,VALID,0,VALID,22.6884,VALID,53,VALID,0.462109,
2011-09-22, 02:21:04,VALID,1000.69,VALID,0,VALID,92.7457,VALID,0,VALID,22.6884,VALID,53,VALID,0.391016,
2011-09-22, 02:22:04,VALID,1000.65,VALID,0,VALID,92.7991,VALID,0,VALID,22.6884,VALID,53,VALID,0.322656,
2011-09-22, 02:23:04,VALID,1000.67,VALID,0,VALID,92.7838,VALID,0,VALID,22.6672,VALID,53,VALID,0.25625,
2011-09-22, 02:24:04,VALID,1000.63,VALID,0,VALID,92.8296,VALID,0,VALID,22.6689,VALID,53,VALID,0.297656,
2011-09-22, 02:25:04,VALID,1000.61,VALID,0,VALID,92.8601,VALID,0,VALID,22.6867,VALID,53,VALID,0.324219,
2011-09-22, 02:26:04,VALID,1000.62,VALID,0,VALID,92.9135,VALID,0,VALID,22.6867,VALID,53,VALID,0.3875,
2011-09-22, 02:27:04,VALID,1000.6,VALID,0,VALID,92.9593,VALID,0,VALID,22.685,VALID,53,VALID,0.275,
2011-09-22, 02:28:04,VALID,1000.59,VALID,0,VALID,92.9822,VALID,0.112286,VALID,22.7257,VALID,53,VALID,0,
2011-09-22, 02:29:04,VALID,1000.55,VALID,0,VALID,93.0508,VALID,0,VALID,22.7045,VALID,53,VALID,0,
2011-09-22, 02:30:04,VALID,1000.53,VALID,0,VALID,93.1043,VALID,0,VALID,22.7452,VALID,53,VALID,0,
2011-09-22, 02:31:04,VALID,1000.51,VALID,0,VALID,93.1195,VALID,0,VALID,22.7452,VALID,53,VALID,0,
2011-09-22, 02:32:04,VALID,1000.5,VALID,0,VALID,93.1577,VALID,0,VALID,22.7647,VALID,53,VALID,0,
2011-09-22, 02:33:04,VALID,1000.46,VALID,0,VALID,93.1729,VALID,0,VALID,22.7842,VALID,53,VALID,0,
2011-09-22, 02:34:04,VALID,1000.47,VALID,0,VALID,93.2187,VALID,0,VALID,22.7842,VALID,53,VALID,0,
2011-09-22, 02:35:04,VALID,1000.46,VALID,0,VALID,93.2568,VALID,0.112286,VALID,22.7647,VALID,53,VALID,0,
2011-09-22, 02:36:04,VALID,1000.44,VALID,0,VALID,93.2492,VALID,0,VALID,22.7647,VALID,53,VALID,0,
2011-09-22, 02:37:04,VALID,1000.43,VALID,0,VALID,93.2721,VALID,0.112286,VALID,22.724,VALID,53,VALID,0,
2011-09-22, 02:38:04,VALID,1000.43,VALID,0,VALID,93.295,VALID,0,VALID,22.7452,VALID,53,VALID,0,
2011-09-22, 02:39:04,VALID,1000.43,VALID,0,VALID,93.3103,VALID,0,VALID,22.724,VALID,53,VALID,0,
2011-09-22, 02:40:04,VALID,1000.39,VALID,0,VALID,93.3484,VALID,0,VALID,22.7452,VALID,53,VALID,0,
2011-09-22, 02:41:04,VALID,1000.39,VALID,0,VALID,93.356,VALID,0,VALID,22.7257,VALID,53,VALID,0,
2011-09-22, 02:42:04,VALID,1000.4,VALID,0,VALID,93.3637,VALID,0,VALID,22.7274,VALID,53,VALID,0,
2011-09-22, 02:43:04,VALID,1000.43,VALID,0,VALID,93.3789,VALID,0,VALID,22.7274,VALID,53,VALID,0,
2011-09-22, 02:44:04,VALID,1000.39,VALID,0,VALID,93.3789,VALID,0,VALID,22.7079,VALID,53,VALID,0,
2011-09-22, 02:45:04,VALID,1000.37,VALID,0,VALID,93.4018,VALID,0,VALID,22.6884,VALID,55,VALID,0.675781,
2011-09-22, 02:46:04,VALID,1000.38,VALID,0,VALID,93.44,VALID,0,VALID,22.6884,VALID,55,VALID,0.734766,
2011-09-22, 02:47:05,VALID,1000.37,VALID,0,VALID,93.44,VALID,0,VALID,22.6884,VALID,55,VALID,0.696484,
2011-09-22, 02:48:05,VALID,1000.38,VALID,0,VALID,93.4171,VALID,0,VALID,22.6689,VALID,55,VALID,0.432813,
2011-09-22, 02:49:05,VALID,1000.37,VALID,0,VALID,93.4171,VALID,0,VALID,22.6494,VALID,55,VALID,0.402344,
2011-09-22, 02:50:05,VALID,1000.37,VALID,0,VALID,93.4094,VALID,0,VALID,22.6299,VALID,55,VALID,0,
2011-09-22, 02:51:05,VALID,1000.39,VALID,0,VALID,93.4171,VALID,0,VALID,22.6299,VALID,55,VALID,0,
2011-09-22, 02:52:05,VALID,1000.4,VALID,0,VALID,93.3866,VALID,0,VALID,22.6104,VALID,55,VALID,0,
2011-09-22, 02:53:05,VALID,1000.39,VALID,0,VALID,93.3789,VALID,0,VALID,22.5501,VALID,55,VALID,0,
2011-09-22, 02:54:05,VALID,1000.42,VALID,0,VALID,93.3637,VALID,0,VALID,22.5306,VALID,55,VALID,0,
2011-09-22, 02:55:05,VALID,1000.4,VALID,0,VALID,93.356,VALID,0,VALID,22.5111,VALID,55,VALID,0,
2011-09-22, 02:56:05,VALID,1000.4,VALID,0,VALID,93.3637,VALID,0,VALID,22.5111,VALID,55,VALID,0,
2011-09-22, 02:57:05,VALID,1000.42,VALID,0,VALID,93.3637,VALID,0,VALID,22.4916,VALID,55,VALID,0,
2011-09-22, 02:58:05,VALID,1000.43,VALID,0,VALID,93.3866,VALID,0,VALID,22.4509,VALID,55,VALID,0,
2011-09-22, 02:59:05,VALID,1000.41,VALID,0,VALID,93.4323,VALID,0,VALID,22.4916,VALID,55,VALID,0,
2011-09-22, 03:00:05,VALID,1000.4,VALID,0,VALID,93.4628,VALID,0,VALID,22.4526,VALID,55,VALID,0,
2011-09-22, 03:01:05,VALID,1000.41,VALID,0,VALID,93.4705,VALID,0,VALID,22.4136,VALID,55,VALID,0,
2011-09-22, 03:02:05,VALID,1000.39,VALID,0,VALID,93.4781,VALID,0,VALID,22.3746,VALID,55,VALID,0,
2011-09-22, 03:03:05,VALID,1000.4,VALID,0,VALID,93.5163,VALID,0,VALID,22.3144,VALID,55,VALID,0,
2011-09-22, 03:04:05,VALID,1000.38,VALID,0,VALID,93.5163,VALID,0.112286,VALID,22.2949,VALID,55,VALID,0,
2011-09-22, 03:05:05,VALID,1000.4,VALID,0,VALID,93.5391,VALID,0,VALID,22.2966,VALID,55,VALID,0,
2011-09-22, 03:06:05,VALID,1000.4,VALID,0,VALID,93.5239,VALID,0,VALID,22.2754,VALID,55,VALID,0,
2011-09-22, 03:07:05,VALID,1000.43,VALID,0,VALID,93.5544,VALID,0,VALID,22.2771,VALID,55,VALID,0,
2011-09-22, 03:08:05,VALID,1000.42,VALID,0,VALID,93.5697,VALID,0.112286,VALID,22.2754,VALID,55,VALID,0,
2011-09-22, 03:09:05,VALID,1000.42,VALID,0,VALID,93.5849,VALID,0,VALID,22.3144,VALID,84,VALID,0.670313,
2011-09-22, 03:10:05,VALID,1000.43,VALID,0,VALID,93.5773,VALID,0,VALID,22.3763,VALID,84,VALID,0.7875,
2011-09-22, 03:11:05,VALID,1000.4,VALID,0,VALID,93.5391,VALID,0,VALID,22.3941,VALID,84,VALID,0.803125,
2011-09-22, 03:12:05,VALID,1000.39,VALID,0,VALID,93.5315,VALID,0,VALID,22.4543,VALID,84,VALID,0.731641,
2011-09-22, 03:13:05,VALID,1000.37,VALID,0,VALID,93.44,VALID,0,VALID,22.4526,VALID,84,VALID,0.733984,
2011-09-22, 03:14:05,VALID,1000.36,VALID,0,VALID,93.3484,VALID,0,VALID,22.4933,VALID,84,VALID,0.510156,
2011-09-22, 03:15:05,VALID,1000.34,VALID,0,VALID,93.2187,VALID,0,VALID,22.5128,VALID,84,VALID,0.5,
2011-09-22, 03:16:05,VALID,1000.34,VALID,0,VALID,93.0508,VALID,0,VALID,22.4916,VALID,84,VALID,0.314063,
2011-09-22, 03:17:05,VALID,1000.34,VALID,0,VALID,92.9288,VALID,0,VALID,22.4721,VALID,84,VALID,0.394141,
2011-09-22, 03:18:05,VALID,1000.33,VALID,0,VALID,92.822,VALID,0,VALID,22.4738,VALID,84,VALID,0.398047,
2011-09-22, 03:19:05,VALID,1000.34,VALID,0,VALID,92.7151,VALID,0,VALID,22.4543,VALID,84,VALID,0.463281,
2011-09-22, 03:20:05,VALID,1000.33,VALID,0,VALID,92.7228,VALID,0,VALID,22.4136,VALID,84,VALID,0.464453,
2011-09-22, 03:21:05,VALID,1000.32,VALID,0,VALID,92.7838,VALID,0,VALID,22.4348,VALID,84,VALID,0.309375,
2011-09-22, 03:22:05,VALID,1000.33,VALID,0,VALID,92.883,VALID,0,VALID,22.4136,VALID,84,VALID,0,
2011-09-22, 03:23:05,VALID,1000.34,VALID,0,VALID,92.9364,VALID,0,VALID,22.3941,VALID,84,VALID,0,
2011-09-22, 03:24:05,VALID,1000.34,VALID,0,VALID,92.9974,VALID,0,VALID,22.3746,VALID,84,VALID,0,
2011-09-22, 03:25:05,VALID,1000.34,VALID,0,VALID,93.0508,VALID,0,VALID,22.3763,VALID,84,VALID,0,
2011-09-22, 03:26:05,VALID,1000.34,VALID,0,VALID,93.1271,VALID,0,VALID,22.3763,VALID,84,VALID,0,
2011-09-22, 03:27:05,VALID,1000.34,VALID,0,VALID,93.1958,VALID,0,VALID,22.3958,VALID,84,VALID,0,
2011-09-22, 03:28:05,VALID,1000.35,VALID,0,VALID,93.2492,VALID,0,VALID,22.3958,VALID,84,VALID,0,
2011-09-22, 03:29:05,VALID,1000.36,VALID,0,VALID,93.3103,VALID,0,VALID,22.3941,VALID,84,VALID,0,
2011-09-22, 03:30:05,VALID,1000.36,VALID,0,VALID,93.356,VALID,0,VALID,22.4136,VALID,84,VALID,0,
2011-09-22, 03:31:05,VALID,1000.35,VALID,0,VALID,93.3942,VALID,0,VALID,22.4543,VALID,84,VALID,0,
2011-09-22, 03:32:05,VALID,1000.35,VALID,0,VALID,93.4094,VALID,0,VALID,22.4543,VALID,84,VALID,0,
2011-09-22, 03:33:05,VALID,1000.39,VALID,0,VALID,93.4247,VALID,0,VALID,22.4738,VALID,84,VALID,0.434766,
2011-09-22, 03:34:05,VALID,1000.37,VALID,0,VALID,93.3942,VALID,0,VALID,22.4721,VALID,84,VALID,0.426172,
2011-09-22, 03:35:05,VALID,1000.41,VALID,0,VALID,93.3484,VALID,0,VALID,22.4721,VALID,84,VALID,0.414844,
2011-09-22, 03:36:05,VALID,1000.4,VALID,0,VALID,93.3331,VALID,0,VALID,22.5128,VALID,84,VALID,0.547656,
2011-09-22, 03:37:05,VALID,1000.41,VALID,0,VALID,93.2721,VALID,0,VALID,22.5323,VALID,84,VALID,0.6375,
2011-09-22, 03:38:05,VALID,1000.42,VALID,0,VALID,93.1653,VALID,0,VALID,22.5519,VALID,84,VALID,0.668359,
2011-09-22, 03:39:05,VALID,1000.44,VALID,0,VALID,93.0508,VALID,0,VALID,22.5909,VALID,84,VALID,0.276563,
2011-09-22, 03:40:05,VALID,1000.44,VALID,0,VALID,92.8754,VALID,0,VALID,22.6104,VALID,84,VALID,0,
2011-09-22, 03:41:05,VALID,1000.46,VALID,0,VALID,92.6541,VALID,0,VALID,22.6104,VALID,84,VALID,0,
2011-09-22, 03:42:05,VALID,1000.45,VALID,0,VALID,92.5168,VALID,0,VALID,22.5909,VALID,84,VALID,0,
2011-09-22, 03:43:05,VALID,1000.45,VALID,0,VALID,92.4023,VALID,0,VALID,22.5909,VALID,84,VALID,0,
2011-09-22, 03:44:05,VALID,1000.45,VALID,0,VALID,92.3031,VALID,0,VALID,22.5714,VALID,84,VALID,0,
2011-09-22, 03:45:05,VALID,1000.45,VALID,0,VALID,92.326,VALID,0,VALID,22.5909,VALID,84,VALID,0,
2011-09-22, 03:46:05,VALID,1000.45,VALID,0,VALID,92.3489,VALID,0,VALID,22.5909,VALID,84,VALID,0,
2011-09-22, 03:47:05,VALID,1000.45,VALID,0,VALID,92.3642,VALID,0,VALID,22.5501,VALID,84,VALID,0,
2011-09-22, 03:48:05,VALID,1000.47,VALID,0,VALID,92.3413,VALID,0,VALID,22.5519,VALID,84,VALID,0,
2011-09-22, 03:49:05,VALID,1000.46,VALID,0,VALID,92.3489,VALID,0,VALID,22.5519,VALID,84,VALID,0,
2011-09-22, 03:50:05,VALID,1000.46,VALID,0,VALID,92.3642,VALID,0,VALID,22.5323,VALID,84,VALID,0.408594,
2011-09-22, 03:51:05,VALID,1000.47,VALID,0,VALID,92.4328,VALID,0,VALID,22.5519,VALID,84,VALID,0.428906,
2011-09-22, 03:52:05,VALID,1000.46,VALID,0,VALID,92.4405,VALID,0,VALID,22.5519,VALID,84,VALID,0.377344,